{"data":{"norad_id":65845,"epoch":"2026-09-20T05:14:44.749536Z","epoch_age_seconds":130380,"freshness":"FRESH","line1":"1 65845U 25221Y   26263.21857349  .00020602  00000+0  61926-3 0  9994","line2":"2 65845  53.1558 260.7295 0001100  98.2205 261.8922 15.34396733 54571","mean_motion":15.34396733,"eccentricity":0.00011,"inclination_deg":53.1558,"raan_deg":260.7295,"arg_perigee_deg":98.2205,"mean_anomaly_deg":261.8922,"bstar":0.00061926,"rev_number":5457,"period_min":93.847957899686,"perigee_km":461.96045694227,"apogee_km":463.46544393137,"semimajor_km":6840.8499504368,"source":"CELESTRAK","updated_at":"2026-09-21T09:00:35.723565Z"}}